OpenBCM V1.08-5-g2f4a (Linux)

Packet Radio Mailbox

IZ3LSV

[San Dona' di P. JN]

 Login: GUEST





  
CX2SA  > KEP      18.12.19 01:03l 86 Lines 3614 Bytes #999 (0) @ ARL
BID : ARLK097
Read: GUEST
Subj: ARLK097 Keplerian data
Path: IZ3LSV<IQ5KG<I0OJJ<GB7CIP<N7HPX<KC9VYU<N3HYM<CX2SA
Sent: 191217/2354Z @:CX2SA.SAL.URY.SOAM #:20971 [Salto] FBB7.00e $:ARLK097
From: CX2SA@CX2SA.SAL.URY.SOAM
To  : KEP@ARL


ZCZC SK97
QST de W1AW
Keplerian Bulletin 97  ARLK097
From ARRL Headquarters
Newington, CT  December 17, 2019
To all radio amateurs

SB KEP ARL ARLK097
ARLK097 Keplerian data

Special thanks to AMSAT-NA (AMSAT.ORG) for the following Keplerian
data.

Decode 2-line elsets with the following key:
1 AAAAAU 00  0  0 BBBBB.BBBBBBBB  .CCCCCCCC  00000-0  00000-0 0  DDDZ
2 AAAAA EEE.EEEE FFF.FFFF GGGGGGG HHH.HHHH III.IIII JJ.JJJJJJJJKKKKKZ
KEY: A-CATALOGNUM B-EPOCHTIME C-DECAY D-ELSETNUM E-INCLINATION F-RAAN
G-ECCENTRICITY H-ARGPERIGEE I-MNANOM J-MNMOTION K-ORBITNUM Z-CHECKSUM

0 AO-07
1 7530U 74089B   19350.85379212 -.00000029  00000-0  98491-4 0  9995
2 7530 101.7729 316.8294 0012326 358.9635  54.0802 12.53641220 63228
0 FO-29
1 24278U 96046B   19351.15750312 -.00000044  00000-0 -11549-4 0  9995
2 24278  98.5635 120.1979 0351077 129.5498 233.7224 13.53094992152344
0 ISS
1 25544U 98067A   19351.74619182 -.00000060  00000-0  69769-5 0  9996
2 25544  51.6427 171.2974 0007480  46.8716  24.1865 15.50121461203736
0 SO-50
1 27607U 02058C   19351.79063777 -.00000071  00000-0  10808-4 0  9992
2 27607  64.5541 212.8463 0069425 220.5579 139.0339 14.75595603913906
0 CO-55
1 27844U 03031E   19351.79838269  .00000033  00000-0  34628-4 0  9996
2 27844  98.6835 357.2852 0009179 219.6638 140.3869 14.22211185854172
0 RS-22
1 27939U 03042A   19351.77635223  .00000175  00000-0  40048-4 0  9996
2 27939  98.0653 124.3357 0012316 206.6152 153.4431 14.66824787867233
0 RS-30
1 32953U 08025A   19351.77956421  .00000037  00000-0  19437-3 0  9994
2 32953  82.5053  31.5214 0020402  93.2518 267.0896 12.43092976524933
0 KKS-1
1 33499U 09002H   19351.82841092  .00000065  00000-0  17537-4 0  9990
2 33499  98.3334 196.2226 0008964 354.8077   5.3036 14.75488713586081
0 AO-71
1 37854U 11061E   19350.86182220  .00000985  00000-0  57784-4 0  9990
2 37854 101.7130 342.3411 0159434 247.5745 110.8513 15.06868590444278
0 AO-73
1 39444U 13066AE  19350.79161755  .00000207  00000-0  31622-4 0  9996
2 39444  97.5575 356.2118 0058716 151.9887 208.4509 14.82027744326756
0 UKUBE 1
1 40074U 14037F   19351.73575270  .00000239  00000-0  35770-4 0  9995
2 40074  98.4494 164.2385 0004724   6.3612 353.7681 14.84156450294656
0 XW-2A
1 40903U 15049E   19351.73528259  .00001468  00000-0  35891-4 0  9994
2 40903  97.3147  35.3430 0012724 199.0353 301.6068 15.42427371238309
0 XW-2F
1 40910U 15049M   19351.81443667  .00000910  00000-0  48594-4 0  9995
2 40910  97.4649 352.9169 0013070 277.7998 206.2585 15.17597745234637
0 XW-2B
1 40911U 15049N   19351.74972235  .00000700  00000-0  39898-4 0  9990
2 40911  97.4717 351.2455 0012588 289.7288 244.1274 15.15997702234486
0 IO-86
1 40931U 15052B   19350.97195320  .00000793  00000-0  21444-4 0  9992
2 40931   5.9975 203.9520 0012456 198.9982 160.9454 14.76623401228093
0 CAS-4B
1 42759U 17034B   19351.81950991  .00000175  00000-0  24180-4 0  9995
2 42759  43.0204 310.4077 0012703 317.4239 123.1171 15.09704385138365
0 CAS-4A
1 42761U 17034D   19351.84067153  .00000048  00000-0  16446-4 0  9995
2 42761  43.0198 309.7091 0013119 318.3090 128.9247 15.09781334138360
0 AO-91
1 43017U 17073E   19350.75422302  .00000528  00000-0  47249-4 0  9991
2 43017  97.7256 265.0434 0256314 288.9146  68.4441 14.78745313112011
0 AO-92
1 43137U 18004AC  19351.15815391  .00000776  00000-0  35250-4 0  9992
2 43137  97.4686  58.3798 0008733 350.0619  10.0444 15.23771917107122

Keplerian bulletins are transmitted twice weekly from W1AW.  The
next scheduled transmission of these data will be Friday, December
20, 2019, at 2230z on Baudot and BPSK31.
NNNN


Read previous mail | Read next mail


 15.03.2026 21:09:37lGo back Go up